Weather History for Teterboro, NJ

Change the Weather History Date:

Tuesday, May 8, 2012

  Actual Average Record
Temperature  
Mean Temperature 60 °F -  
Max Temperature 69 °F 68 °F 90 °F (2000)
Min Temperature 55 °F 48 °F 39 °F (1997)
Degree Days  
Heating Degree Days 4    
Growing Degree Days 10 (Base 50)    
Moisture  
Dew Point 50 °F    
Average Humidity 67    
Maximum Humidity 83    
Minimum Humidity 54    
Precipitation  
Precipitation 0.05 in - - ()
Sea Level Pressure  
Sea Level Pressure 29.93 in    
Wind  
Wind Speed 9 mph (SSE)    
Max Wind Speed 16 mph    
Max Gust Speed 26 mph    
Visibility 9 miles    
Events Rain    
Averages and records for this station are not official NWS values.
T = Trace of Precipitation, MM = Missing Value Source: NWS Daily Summary

Daily Weather History Graph

Daily Weather History Graph

Search for Another Location

Airport:

Trip Planner

Search our weather history database for the weather conditions in past years. The results will help you decide how hot, cold, wet, or windy it might be!

Date:

Astronomy

May. 08, 2012 Rise Set
Actual Time 5:45 AM EDT 8:00 PM EDT
Civil Twilight 5:15 AM EDT 8:31 PM EDT
Nautical Twilight 4:37 AM EDT 9:08 PM EDT
Astronomical Twilight 3:56 AM EDT 9:50 PM EDT
Moon 11:09 PM EDT (5/8) 7:50 AM EDT (5/8)
Length of Visible Light 15h 15m
Length of Day
14h 14m
Waning Gibbous, 91% of the Moon is Illuminated
May 8
Waning Gibbous
May 12
Last Quarter
May 20
New
May 28
First Quarter
Jun 4
Full

Hourly Weather History & Observations

Time (EDT) Temp. Dew Point Humidity Pressure Visibility Wind Dir Wind Speed Gust Speed Precip Events Conditions
12:51 AM 57.0 °F 42.1 °F 57% 30.08 in 10.0 mi South 8.1 mph - N/A   Overcast
1:51 AM 55.9 °F 44.1 °F 64% 30.05 in 10.0 mi South 9.2 mph - N/A   Overcast
2:51 AM 55.9 °F 44.1 °F 64% 30.04 in 10.0 mi SSE 8.1 mph - N/A   Overcast
3:51 AM 55.9 °F 44.1 °F 64% 30.02 in 10.0 mi South 9.2 mph - N/A   Overcast
4:51 AM 57.0 °F 45.0 °F 64% 30.01 in 10.0 mi South 5.8 mph - N/A   Overcast
5:51 AM 57.0 °F 46.0 °F 67% 30.02 in 10.0 mi South 8.1 mph - N/A   Overcast
6:51 AM 57.0 °F 46.9 °F 69% 30.02 in 10.0 mi South 9.2 mph - N/A   Overcast
7:51 AM 57.9 °F 48.0 °F 70% 30.01 in 10.0 mi South 12.7 mph 19.6 mph N/A   Overcast
8:51 AM 59.0 °F 48.0 °F 67% 30.00 in 10.0 mi South 10.4 mph 20.7 mph N/A   Overcast
9:51 AM 61.0 °F 48.9 °F 64% 29.99 in 10.0 mi South 16.1 mph 19.6 mph N/A   Overcast
10:51 AM 62.6 °F 51.8 °F 68% 29.96 in 10.0 mi South 11.5 mph - N/A   Overcast
11:51 AM 64.0 °F 51.1 °F 63% 29.93 in 10.0 mi SSE 12.7 mph 26.5 mph N/A   Clear
12:51 PM 64.9 °F 50.0 °F 58% 29.91 in 10.0 mi South 13.8 mph 23.0 mph N/A   Overcast
1:51 PM 66.0 °F 50.0 °F 56% 29.89 in 10.0 mi SSE 16.1 mph 23.0 mph N/A   Overcast
2:51 PM 66.9 °F 50.0 °F 54% 29.88 in 10.0 mi SSE 13.8 mph 19.6 mph N/A   Scattered Clouds
3:51 PM 66.9 °F 51.1 °F 57% 29.86 in 8.0 mi SSE 11.5 mph 18.4 mph 0.00 in Rain Light Rain
4:51 PM 66.9 °F 53.1 °F 61% 29.85 in 10.0 mi SSE 10.4 mph - 0.00 in Rain Light Rain
5:51 PM 64.0 °F 54.0 °F 70% 29.83 in 8.0 mi South 10.4 mph 21.9 mph 0.01 in Rain Light Rain
6:51 PM 64.0 °F 54.0 °F 70% 29.82 in 10.0 mi South 10.4 mph - 0.00 in Rain Light Rain
7:51 PM 63.0 °F 54.0 °F 72% 29.83 in 8.0 mi South 8.1 mph - 0.00 in   Overcast
8:22 PM 62.6 °F 55.4 °F 77% 29.84 in 4.0 mi South 6.9 mph - 0.00 in   Light Drizzle
8:51 PM 61.0 °F 55.0 °F 81% 29.84 in 10.0 mi South 8.1 mph - 0.01 in   Light Drizzle
9:51 PM 62.1 °F 53.1 °F 72% 29.84 in 10.0 mi SSE 6.9 mph - 0.00 in   Light Drizzle
10:51 PM 61.0 °F 54.0 °F 78% 29.84 in 6.0 mi Calm Calm - 0.00 in Rain Light Rain
11:51 PM 60.1 °F 55.0 °F 83% 29.83 in 10.0 mi ESE 3.5 mph - 0.03 in   Overcast